Location: Cedar Falls
(42.5280°N, 92.4450°W)
Time: 02:56:45
(UTC-05:00)

NOSS 3-1 (C) - Visible Passes

Search period start: 20 September 2014 00:00
Search period end: 30 September 2014 00:00
Orbit: 897 x 1312 km, 63.4° (Epoch: 26 August)

Date Brightness Start Highest point End Pass type
(mag) Time Alt. Az. Time Alt. Az. Time Alt. Az.
20 Sep 6.3 05:13:35 10° ESE 05:15:18 11° ESE 05:17:03 10° E visible
21 Sep 4.6 06:14:04 10° S 06:19:48 46° ESE 06:26:00 10° NE visible
22 Sep 5.4 05:29:54 10° SSE 05:34:55 28° ESE 05:40:15 10° NE visible
23 Sep 5.9 04:46:38 10° SE 04:50:11 16° ESE 04:53:51 10° ENE visible
24 Sep 4.0 05:48:56 10° SSW 05:54:52 61° ESE 06:01:21 10° NE visible
25 Sep 4.8 05:04:26 10° S 05:09:55 37° ESE 05:15:47 10° NE visible
26 Sep 5.5 04:20:44 11° SSE 04:25:06 22° ESE 04:29:49 10° ENE visible
26 Sep 3.6 06:09:09 10° SW 06:15:14 67° NW 06:21:54 10° NNE visible
27 Sep 5.9 03:38:12 10° SE 03:40:25 12° ESE 03:42:41 10° E visible
27 Sep 3.6 05:25:12 17° SSW 05:30:00 79° ESE 05:36:38 10° NE visible
28 Sep 4.2 04:42:07 29° S 04:44:57 49° ESE 04:51:12 10° NE visible
28 Sep 4.3 06:30:19 10° WSW 06:36:00 36° NW 06:42:13 10° NNE visible
29 Sep 4.8 03:58:55 28° SE 04:00:03 29° ESE 04:05:30 10° NE visible
29 Sep 3.7 05:46:22 21° WSW 05:50:30 53° NW 05:57:05 10° NNE visible
